Weather History for KASX - January, 2013

Change the Weather History Date:

Tuesday, January 8, 2013

  Actual Average Record
Temperature  
Mean Temperature 23 °F -  
Max Temperature 36 °F 19 °F 51 °F (2003)
Min Temperature 10 °F -4 °F -28 °F (1968)
Degree Days  
Heating Degree Days 42    
Moisture  
Dew Point 20 °F    
Average Humidity 79    
Maximum Humidity 100    
Minimum Humidity 61    
Precipitation  
Precipitation 0.00 in - - ()
Sea Level Pressure  
Sea Level Pressure 29.90 in    
Wind  
Wind Speed 6 mph (SSW)    
Max Wind Speed 16 mph    
Max Gust Speed 28 mph    
Visibility 8 miles    
Events      
Averages and records for this station are not official NWS values.
T = Trace of Precipitation, MM = Missing Value Source: NWS Daily Summary

Daily Weather History Graph

Daily Weather History Graph

Search for Another Location

Airport or City:

Trip Planner

Search our weather history database for the weather conditions in past years. The results will help you decide how hot, cold, wet, or windy it might be!

Date:

Astronomy

Jan. 08, 2013 Rise Set
Actual Time 7:46 AM CST 4:34 PM CST
Civil Twilight 7:12 AM CST 5:09 PM CST
Nautical Twilight 6:34 AM CST 5:47 PM CST
Astronomical Twilight 5:57 AM CST 6:23 PM CST
Moon 4:18 AM CST (1/8) 1:37 PM CST (1/8)
Length of Visible Light 9h 57m
Length of Day
8h 48m
Waning Crescent, 13% of the Moon is Illuminated
Jan 8
Waning Crescent
Jan 11
New
Jan 18
First Quarter
Jan 26
Full
Feb 3
Last Quarter

Hourly Weather History & Observations

Time (CST) Temp. Windchill Dew Point Humidity Pressure Visibility Wind Dir Wind Speed Gust Speed Precip Events Conditions
12:53 AM 27.0 °F 20.5 °F 19.9 °F 75% 29.96 in 10.0 mi WSW 5.8 mph - N/A   Clear
1:53 AM 26.1 °F 18.4 °F 19.9 °F 78% 29.98 in 10.0 mi SW 6.9 mph - N/A   Clear
2:53 AM 21.9 °F 15.7 °F 19.0 °F 89% 29.99 in 10.0 mi SSW 4.6 mph - N/A   Clear
3:53 AM 19.0 °F 12.3 °F 16.0 °F 88% 29.99 in 10.0 mi South 4.6 mph - N/A   Clear
4:53 AM 21.0 °F 14.6 °F 18.0 °F 88% 29.99 in 9.0 mi SSW 4.6 mph - N/A   Clear
5:53 AM 17.1 °F 11.7 °F 14.0 °F 88% 30.00 in 7.0 mi SSW 3.5 mph - N/A   Clear
6:53 AM 17.1 °F 11.7 °F 14.0 °F 88% 30.01 in 5.0 mi South 3.5 mph - N/A   Clear
7:51 AM 14.0 °F 6.5 °F 10.4 °F 86% 29.99 in 2.5 mi South 4.6 mph - N/A   Clear
7:53 AM 12.0 °F 2.7 °F 9.0 °F 88% 30.04 in 2.0 mi SSW 5.8 mph - N/A   Clear
8:07 AM 10.4 °F 4.0 °F 10.4 °F 100% 29.99 in 3.0 mi South 3.5 mph - N/A   Clear
8:53 AM 15.1 °F - 12.9 °F 91% 30.04 in 3.0 mi Calm Calm - N/A   Clear
9:53 AM 23.0 °F - 21.0 °F 92% 30.04 in 7.0 mi Calm Calm - N/A   Clear
10:53 AM 28.0 °F - 21.0 °F 75% 30.01 in 10.0 mi Calm Calm - N/A   Clear
11:53 AM 30.0 °F - 19.9 °F 66% 29.98 in 10.0 mi Calm Calm - N/A   Clear
12:53 PM 34.0 °F 29.8 °F 21.9 °F 61% 29.95 in 10.0 mi SSE 4.6 mph - N/A   Scattered Clouds
1:53 PM 32.0 °F 28.7 °F 21.9 °F 66% 29.91 in 10.0 mi North 3.5 mph - N/A   Clear
2:53 PM 30.9 °F 26.2 °F 21.9 °F 69% 29.88 in 10.0 mi NNE 4.6 mph - N/A   Clear
3:53 PM 28.9 °F 25.2 °F 23.0 °F 78% 29.86 in 9.0 mi NE 3.5 mph - N/A   Clear
4:53 PM 26.1 °F - 21.9 °F 84% 29.83 in 7.0 mi Calm Calm - N/A   Partly Cloudy
5:53 PM 30.0 °F 26.5 °F 23.0 °F 75% 29.78 in 10.0 mi SSE 3.5 mph - N/A   Clear
6:53 PM 35.1 °F 27.4 °F 25.0 °F 67% 29.75 in 10.0 mi South 10.4 mph 17.3 mph N/A   Partly Cloudy
7:32 PM 35.6 °F 26.2 °F 26.6 °F 70% 29.71 in 10.0 mi SSW 15.0 mph 23.0 mph N/A   Overcast
7:53 PM 36.0 °F 26.3 °F 26.1 °F 67% 29.74 in 10.0 mi SSW 16.1 mph 23.0 mph N/A   Overcast
8:53 PM 36.0 °F 26.7 °F 27.0 °F 70% 29.73 in 10.0 mi SW 15.0 mph 21.9 mph N/A   Overcast
9:53 PM 35.1 °F 25.2 °F 28.0 °F 76% 29.73 in 10.0 mi SW 16.1 mph 27.6 mph N/A   Overcast
10:53 PM 35.1 °F 26.4 °F 27.0 °F 72% 29.75 in 9.0 mi WSW 12.7 mph 25.3 mph N/A   Overcast
11:53 PM 34.0 °F 23.8 °F 27.0 °F 75% 29.77 in 8.0 mi WSW 16.1 mph 19.6 mph N/A   Overcast